Regional Weather Roundup
Issued by NWS

Home | Current Version | Previous Version | Graphics & Text | Print | Product List | Glossary On
Versions: 1 2 3 4 5 6 7 8 9 10 11 12 13 14 15 16 17 18 19 20 21 22 23 24 25 26 27 28 29 30 31 32 33 34 35 36 37 38 39 40 41 42 43 44 45 46 47 48 49 50
000
ASUS45 KTFX 281710
RWRMT
MONTANA REGIONAL WEATHER ROUNDUP
NATIONAL WEATHER SERVICE GREAT FALLS MT
1100 AM MDT WED SEP 28 2016

NOTE: "FAIR" INDICATES FEW OR NO CLOUDS BELOW 12000 FEET WITH NO
SIGNIFICANT WEATHER AND/OR OBSTRUCTIONS TO VISIBILITY.

MTZ001>007-043-281800-
WEST OF THE DIVIDE

CITY           SKY/WX    TMP DP  RH WIND       PRES   REMARKS
KALISPELL      SUNNY     64  40  41 NE10      30.14F
MISSOULA       SUNNY     65  46  50 SE10      30.14F
BUTTE          SUNNY     61  41  47 CALM      30.27S
MULLAN PASS    SUNNY     56  42  59 S9G20     30.20R
ANACONDA         N/A     63  39  42 S6        30.23F
DEER LODGE       N/A     61  43  51 SE5       30.24F
EUREKA           N/A     63  39  42 CALM      30.16F
HAMILTON         N/A     64  43  45 CALM      30.15F
LIBBY            N/A     59  46  63 CALM      30.13F
PLAINS           N/A     62  47  58 CALM      30.11F
RONAN            N/A     66  45  46 N7        30.16F
$$

MTZ008-052>055-281800-
SOUTHWEST MONTANA

CITY           SKY/WX    TMP DP  RH WIND       PRES   REMARKS
BOZEMAN        SUNNY     56  46  69 N5        30.27F
DILLON         SUNNY     57  40  52 SE3       30.27F
W YELLOWSTONE  SUNNY     54  37  54 CALM      30.37S
ENNIS          SUNNY     57  41  54 CALM      30.33F
THREE FORKS      N/A     60  60 100 CALM      30.24F
TWIN BRIDGES     N/A     59  42  53 NW7       30.23S
$$

MTZ009-010-012-014-046-048-049-054-281800-
EAST SLOPES AND CENTRAL MONTANA

CITY           SKY/WX    TMP DP  RH WIND       PRES   REMARKS
CUT BANK       MOSUNNY   52  36  54 SE8       30.29F
GREAT FALLS    SUNNY     53  39  59 VRB5      30.29F
MALMSTROM AFB  SUNNY     51  40  65 SW5       30.29F
HELENA         SUNNY     59  39  47 CALM      30.26F
AUGUSTA          N/A     51  38  60 S2        30.28F
BOWMANS CRNR     N/A     50  38  64 E5        30.27F
CHOTEAU          N/A     55  39  54 CALM      30.30F
CONRAD           N/A     53  44  71 N6        30.28F
FAIRFIELD        N/A     51  38  60 S5        30.28F
POWER            N/A     51  39  64 NE2       30.27F
RAYNESFORD       N/A     55  43  64 SE10      30.28F
$$

MTZ011-013-016-021-045-047-050-051-281800-
NORTH CENTRAL MONTANA

CITY           SKY/WX    TMP DP  RH WIND       PRES   REMARKS
HAVRE          SUNNY     57  44  62 E13       30.30F
LEWISTOWN        N/A     58  45  62 E13       30.30F
N BAR RANCH      N/A     57  45  62 CALM      30.34F
CHINOOK          N/A     55  45  67 E7        30.32F
DENTON           N/A     55  45  68 E8        30.27F
GEYSER           N/A     51  38  60 S2        30.28F
GRASS RANGE      N/A     55  46  71 N2        30.29F
JUDITH GAP       N/A     58  45  63 S14G21    30.31F
ROY              N/A     55  47  73 MISG      30.30F
STANFORD         N/A     55  45  68 SE12      30.29F
WINIFRED         N/A     56  45  68 MISG      30.30F
$$

MTZ017>020-022>027-061-062-281800-
NORTHEAST MONTANA

CITY           SKY/WX    TMP DP  RH WIND       PRES   REMARKS
GLASGOW        SUNNY     62  45  53 NE8       30.29F
JORDAN           N/A     60  47  61 SE5       30.29F
SIDNEY         SUNNY     59  49  69 N6        30.27S
WOLF POINT     SUNNY     63  47  55 N6        30.28F
PLENTYWOOD       N/A     59  46  63 N9        30.27F
POPLAR           N/A     59  46  63 N3        30.29S
SCOBEY           N/A     58  43  57 N10       30.26R
$$

MTZ028>42-056>058-281800-
SOUTHCENTRAL AND SOUTHEAST MONTANA

CITY           SKY/WX    TMP DP  RH WIND       PRES   REMARKS
BAKER          SUNNY     64  50  60 VRB3      30.28S
BILLINGS       SUNNY     57  45  64 NE7       30.31F
LIVINGSTON     SUNNY     60  46  59 NE13      30.29F
MILES CITY     SUNNY     62  48  60 NE7       30.28S
BIG TIMBER     SUNNY     57  46  67 E7        30.33F
EKALAKA          N/A     68  49  50 CALM      30.24S
FORSYTH          N/A     59  50  72 CALM      30.29S
HARLOWTON        N/A     56  45  66 SE9       30.31F
LAUREL           N/A     58  45  62 NE5       30.27F
ROUNDUP          N/A     56  42  59 NE5       30.20F
$$

REGIONAL REPORTS...DAKOTAS

CITY           SKY/WX    TMP DP  RH WIND       PRES   REMARKS
WILLISTON      SUNNY     60  49  66 NE6       30.27R
MINOT          SUNNY     62  45  53 E6        30.27S
DICKINSON      SUNNY     65  48  54 CALM      30.24R
BEACH            N/A     59  54  82 N6        30.30S
CROSBY           N/A     59  46  63 N3        30.29R
BISMARCK       SUNNY     60  44  55 S3        30.29R
GRAND FORKS    CLOUDY    56  45  66 VRB5      30.31R
FARGO          CLOUDY    54  46  74 N6        30.29S
BUFFALO SD       N/A     73  49  42 W3        30.19S
RAPID CITY     SUNNY     75  45  34 N7        30.26S
$$

REGIONAL REPORTS...WYOMING/IDAHO/WASHINGTON

CITY           SKY/WX    TMP DP  RH WIND       PRES   REMARKS
GILLETTE       SUNNY     73  45  36 VRB5      30.31S
SHERIDAN       SUNNY     67  48  50 VRB3      30.30S
BUFFALO WY     SUNNY     73  41  31 S9        30.35S
CODY           SUNNY     60  46  59 NE8       30.33F
YELLOWSTONE LA   N/A     55  42  61 CALM      30.44S
IDAHO FALLS    SUNNY     63  46  54 N6        30.23S
SALMON         SUNNY     57  43  58 CALM      30.21S
BOISE          SUNNY     73  40  30 E8        30.06S
SPOKANE        MOSUNNY   62  42  47 E8        30.06S
$$

REGIONAL REPORTS...ALBERTA

CITY           SKY/WX    TMP DP  RH WIND       PRES   REMARKS
EDMONTON       PTSUNNY   48  32  53 E3        30.33S
CALGARY        PTSUNNY   50  34  53 S18G26    30.29F
LETHBRIDGE     PTSUNNY   52  39  62 VRB8      30.29F
MEDICINE HAT   PTSUNNY   57  41  54 E10G21    30.31F
WATERTON GATE    N/A     52  34  50 NE6         N/A
MILK RIVER       N/A     48  37  66 E1          N/A
$$

REGIONAL REPORTS...SASKATCHEWAN

CITY           SKY/WX    TMP DP  RH WIND       PRES   REMARKS
SWIFT CURRENT  MOSUNNY   55  34  44 E15G22    30.34F
REGINA         MOSUNNY   57  46  67 NE12G17   30.31R
SASKATOON      MOSUNNY   57  41  54 VRB3      30.39F
ROCKGLEN         N/A     54  45  71 N9          N/A
ASSINIBOIA       N/A     43  36  75 S2          N/A
$$



USA.gov is the U.S. government's official web portal to all federal, state and local government web resources and services.